sat.trackr.live / text

‹ back to catalog

STARLINK-35616

NORAD 66255 · 2025-245X

PAYLOAD ACTIVE UNKNOWN

§ Identity

Operator
Country
US
Launch date
2025-10-29
Launch site
AFETR
Launch vehicle
Mass (kg)
RCS (m²)

Purposes: comms

External: N2YO · Heavens-Above · Gunter

§ Orbital elements

Epoch: 2026-05-25T02:29:37.301280Z

Period
94.11 min
Inclination
53.1578°
Eccentricity
0.0001087
Mean motion
15.30202160 rev/d
Perigee alt
474.5 km
Apogee alt
476.0 km
Semi-major
6,853.3 km
B*
7.5159e-4
RAAN
289.1128°
Arg perigee
84.5150°
Mean anomaly
275.5975°
Rev number
3,295

§ Raw data

STARLINK-356161 66255U 25245X   26145.10390395  .00021968  00000+0  75159-3 0  99952 66255  53.1578 289.1128 0001087  84.5150 275.5975 15.30202160 32954

JSON: /api/v1/satellites/66255 · /tle

For live sub-satellite position, see the globe view (requires WebGL).

§ Visibility from observer

Set your observer location to see the next 7 days of passes ≥ 10°. The values pass through the URL so the page stays shareable.

No JS? Fill the form by hand. The geolocation button needs JavaScript.